Regional Weather Roundup
Issued by NWS Green Bay, WI

Home | Current Version | Previous Version | Text Only | Print | Product List | Glossary On
Versions: 1 2 3 4 5 6 7 8 9 10 11 12 13 14 15 16 17 18 19 20 21 22 23 24 25 26 27 28 29 30 31 32 33 34 35 36 37 38 39 40 41 42 43 44 45 46 47 48 49 50
000
ASUS43 KGRB 301410
RWRGRB

NORTH-CENTRAL AND NORTHEAST WISCONSIN REGIONAL WEATHER ROUNDUP
NATIONAL WEATHER SERVICE GREEN BAY WI
900 AM CDT WED JUL 30 2014

WIZ005-009-010>012-018-019-301500-
NORTH CENTRAL WISCONSIN

CITY           SKY/WX    TMP DP  RH WIND       PRES   REMARKS
IRONWOOD       NOT AVBL
MANITOWISH WTR CLOUDY    53  53 100 CALM      30.08F
ARBOR VITAE    PTSUNNY   59  57  92 CALM      30.09S
EAGLE RIVER    PTSUNNY   53  53 100 CALM      30.08S
LAND O LAKES   SUNNY     55  55 100 CALM      30.09S
RHINELANDER    PTSUNNY   56  52  86 W5        30.09S
PHILLIPS       CLOUDY    54  53  99 CALM      30.09S FOG
ANTIGO         SUNNY     59  51  77 N6        30.08S
TOMAHAWK       FOG       52  51  97 CALM      30.09S VSB 1/4
MERRILL        CLOUDY    54  54 100 CALM      30.09S FOG
$$

WIZ013-073-301500-
NORTHEAST WISCONSIN

CITY           SKY/WX    TMP DP  RH WIND       PRES   REMARKS
IRON MOUNTAIN  SUNNY     61  50  67 NW3       30.05S
MARINETTE      SUNNY     59  52  77 N6        30.04S
OCONTO         SUNNY     61  54  77 N6        30.05R
$$

WIZ017-030-035>037-045-301500-
CENTRAL WISCONSIN

CITY           SKY/WX    TMP DP  RH WIND       PRES   REMARKS
MEDFORD        FOG       55  55  99 NW3       30.09S VSB 1/2
WAUSAU         SUNNY     60  54  80 N5        30.07S
MOSINEE        SUNNY     59  55  88 NE5       30.09R
MARSHFIELD     SUNNY     63  55  75 CALM      30.08R
WISC RAPIDS    SUNNY     63  56  78 CALM      30.08S
STEVENS POINT  SUNNY     61  53  74 CALM      30.08R
WAUPACA        SUNNY     64  58  81 CALM      30.07R
SHAWANO        SUNNY     63  54  72 N5        30.07S
CLINTONVILLE   SUNNY     61  54  77 N5        30.06S
$$

WIZ038-039-048-051-301500-
FOX VALLEY

CITY           SKY/WX    TMP DP  RH WIND       PRES   REMARKS
NWS GREEN BAY  MOSUNNY   64  59  83 VRB5      30.06S
APPLETON       MOSUNNY   63  57  82 CALM      30.06S
OSHKOSH        CLOUDY    63  58  83 N9        30.05S
FOND DU LAC    CLOUDY    65  57  75 NE9       30.05S
$$

WIZ022-050-052-301500-
EAST CENTRAL WISCONSIN

CITY           SKY/WX    TMP DP  RH WIND       PRES   REMARKS
STURGEON BAY   SUNNY     61  54  77 N8        30.05S
MANITOWOC      CLOUDY    63  57  81 N8        30.05R
SHEBOYGAN      SUNNY     64  56  75 NE8       30.04S
$$

LMZ563-521-522-541>543-301500-
LAKESHORE

STATION/POSITION TIME  TEMP    WIND        PRES    VSBY  WAVE
                       AIR SEA DIR/SP/G                  HT/PER
                 (UTC) (F)     (DEG/KT/KT) (MB)    (MI)  (FT/S)
SHEBOYGAN LKSHOR 1400   60     350/ 12/ 12 1017.6R
KEWAUNEE LKSHORE 1400   63     320/  2/  7 1017.9R
NORTHPORT PIER   1400   58     330/  9/ 10 1016.9S
N MID LAKE BUOY  1400   52 54  360/ 10/ 12 1016.4R         1/ 3
S GREEN BAY BUOY 1400   60 65  340/  8     1018.4R
CHAMBERS ISLAND  1400   61     320/  6/  7 1017.3S
MENOMINEE LKSHOR 1400   58     330/  5/  7 1018.0S
$$



USA.gov is the U.S. government's official web portal to all federal, state and local government web resources and services.